sat.trackr.live / text

‹ back to catalog

FLOCK 4G-1

NORAD 62666 · 2025-009BK

PAYLOAD ACTIVE UNKNOWN

§ Identity

Operator
Country
US
Launch date
2025-01-14
Launch site
AFWTR
Launch vehicle
Mass (kg)
RCS (m²)

Purposes: earth_obs

External: N2YO · Heavens-Above · Gunter

§ Orbital elements

Epoch: 2026-09-19T12:53:52.160928Z

Period
94.03 min
Inclination
97.3966°
Eccentricity
0.0003714
Mean motion
15.31438508 rev/d
Perigee alt
469.0 km
Apogee alt
474.1 km
Semi-major
6,849.7 km
B*
4.1127e-4
RAAN
344.2366°
Arg perigee
4.2577°
Mean anomaly
355.8695°
Rev number
9,334

§ Raw data

FLOCK 4G-11 62666U 25009BK  26262.53740927  .00012418  00000+0  41127-3 0  99902 62666  97.3966 344.2366 0003714   4.2577 355.8695 15.31438508 93344

JSON: /api/v1/satellites/62666 · /tle

For live sub-satellite position, see the globe view (requires WebGL).

§ Visibility from observer

Set your observer location to see the next 7 days of passes ≥ 10°. The values pass through the URL so the page stays shareable.

No JS? Fill the form by hand. The geolocation button needs JavaScript.